GFSFLT2_250_spd_021.txt.gz
Wind_Speed
47 49 38 34 25 25 24 27 37 47 55 47 43 36 30 28 24 26 27 26 25 26 26 25 24 25 25 25 24 22 19 19
54 50 40 35 33 22 15 18 26 39 50 55 48 46 39 33 31 31 31 27 25 26 29 30 28 28 28 26 24 22 19 18
59 47 41 39 35 35 30 22 23 25 34 46 51 48 44 40 38 35 33 34 30 28 27 29 29 31 32 30 28 27 25 23
61 56 52 47 41 37 33 34 31 28 24 24 34 50 49 46 41 38 35 34 35 35 31 32 32 35 36 35 35 35 33 32
68 61 55 47 41 37 36 36 33 31 31 26 23 20 46 51 50 45 42 40 38 36 36 34 37 38 40 39 39 38 38 39
70 67 64 55 49 45 37 31 34 32 35 34 26 25 30 49 56 55 52 49 47 43 40 38 39 41 42 42 43 43 43 45
75 74 67 61 55 51 43 37 31 41 39 37 32 27 27 26 40 57 57 55 51 48 47 47 47 47 46 45 45 43 42 44
80 80 75 67 60 55 51 44 40 38 37 39 35 30 29 28 25 26 42 56 58 56 54 52 53 53 53 52 51 49 48 51
86 83 81 73 65 60 59 55 50 43 41 47 40 34 35 31 30 26 25 28 35 50 57 58 57 57 56 55 53 53 54 56
91 87 85 75 74 69 63 57 55 49 46 49 49 44 37 33 33 31 29 26 27 29 32 39 44 46 52 55 58 60 61 62
97 91 84 82 79 75 70 61 58 54 52 53 53 54 46 42 40 40 38 36 34 33 34 33 35 38 38 38 41 46 50 56
100 95 89 85 85 80 75 67 62 61 57 59 58 52 51 51 48 47 44 44 44 43 41 39 39 39 40 42 42 45 48 48
102 101 95 90 88 84 81 75 73 66 64 61 59 59 63 60 55 52 49 48 46 46 44 44 44 42 40 39 42 42 40 42
103 101 99 93 93 88 86 85 80 75 69 66 64 64 64 64 64 59 56 56 54 53 51 50 49 48 47 45 44 43 43 44
99 96 98 101 97 94 92 89 83 82 77 72 70 67 66 65 66 66 61 57 56 59 58 57 56 53 52 51 52 51 49 50
94 94 96 99 101 98 94 90 87 84 83 77 76 74 71 70 68 67 68 65 61 59 57 58 59 59 59 59 58 58 59 57
88 91 98 103 101 97 96 93 91 86 81 81 78 77 74 74 74 74 74 71 69 67 65 64 64 65 65 65 64 63 63 62
87 90 90 100 99 97 95 95 94 90 84 85 83 80 77 76 76 78 78 78 77 74 73 73 72 71 71 70 68 67 68 65
93 91 88 91 94 97 98 98 94 91 91 87 84 82 78 77 78 74 81 80 82 81 78 77 79 78 75 73 71 71 71 70

GFSFLT2_250_spd_024.txt.gz
Wind_Speed
54 52 47 40 32 37 27 28 32 43 51 54 44 41 36 31 26 22 23 31 32 34 35 38 35 31 29 27 24 23 20 20
61 59 48 39 41 28 20 24 26 37 47 52 51 47 42 39 33 30 27 32 34 35 36 37 35 34 33 31 30 26 24 21
66 56 50 47 40 36 35 28 30 33 39 46 51 52 47 46 42 37 32 34 37 35 35 35 32 32 33 34 34 33 28 26
66 65 58 55 52 49 39 36 37 33 27 37 45 54 52 48 46 41 37 35 37 34 30 29 35 37 37 36 36 35 32 31
73 70 63 55 53 47 46 42 34 32 29 26 26 40 54 53 51 47 44 40 38 38 37 35 33 33 36 37 38 35 34 34
73 72 68 61 56 50 49 49 42 38 39 36 30 30 43 56 56 54 50 47 45 42 42 43 41 40 40 39 39 38 39 39
83 76 69 62 60 55 52 53 51 46 46 45 38 35 34 43 55 57 56 55 51 49 47 43 43 43 42 42 42 41 42 43
82 79 76 69 63 59 58 55 54 53 52 51 44 39 40 39 45 56 60 58 57 54 52 50 48 46 45 44 44 44 44 45
87 87 82 75 65 64 63 60 56 52 54 55 48 40 40 41 39 42 50 58 60 59 57 55 54 53 52 49 46 46 45 46
93 88 86 76 76 71 70 68 63 55 52 54 49 39 34 37 40 40 40 41 49 56 53 56 57 54 53 51 50 50 49 50
95 87 88 85 81 76 76 72 66 59 53 52 51 46 39 38 42 43 41 38 36 37 38 42 47 53 58 59 59 58 57 57
98 91 90 89 86 81 78 77 74 65 62 58 56 53 53 51 42 37 39 39 37 38 38 38 37 37 38 42 44 45 46 46
101 97 93 92 88 84 85 87 81 72 66 62 59 56 56 53 51 45 41 43 43 41 41 41 40 41 41 39 41 39 37 36
103 100 96 92 89 89 91 86 83 77 70 66 64 59 61 60 58 53 49 49 47 46 46 47 45 43 42 42 42 40 39 40
98 98 96 94 94 92 91 89 88 84 77 72 68 66 64 64 64 60 56 53 52 52 52 52 51 48 48 48 48 48 48 48
91 93 94 93 92 95 95 92 91 91 85 80 74 69 67 67 67 66 61 60 60 57 56 56 56 57 57 57 57 57 56 54
85 89 94 99 99 100 100 97 93 91 90 85 81 75 73 70 70 70 69 66 63 62 63 62 61 61 60 61 62 63 64 64
82 88 90 95 104 99 96 97 96 93 93 91 88 84 81 77 75 75 74 73 71 68 66 66 67 68 68 67 67 68 68 68
91 86 84 89 93 99 100 101 101 97 96 94 91 91 87 84 82 80 78 76 75 75 74 72 72 73 75 75 74 73 73 73

GFSFLT2_250_spd_027.txt.gz
Wind_Speed
56 54 50 46 37 42 37 37 36 30 43 52 50 49 42 38 32 28 25 22 26 26 34 40 38 37 33 30 27 25 22 22
63 57 50 44 48 34 31 29 32 34 39 45 44 49 44 42 36 33 30 26 26 30 36 41 40 39 36 33 31 28 29 28
68 53 53 53 42 35 35 35 35 37 41 40 45 46 50 47 45 41 34 30 27 33 39 40 39 40 40 39 37 35 33 30
62 66 64 60 53 48 43 42 38 41 39 32 38 43 52 52 48 45 39 34 29 32 37 38 39 40 40 39 38 38 36 34
76 74 66 57 55 52 52 52 45 45 35 32 34 41 49 56 52 49 44 39 33 33 36 39 39 39 40 40 41 40 37 36
76 67 71 65 59 57 55 51 48 46 43 35 33 37 45 54 56 55 50 47 43 35 38 41 42 43 40 38 37 35 36 35
85 83 79 69 67 62 57 56 52 50 49 45 37 36 44 55 57 60 55 52 48 45 41 43 43 43 44 43 42 40 38 36
91 86 75 67 64 63 62 61 61 55 51 54 45 40 39 47 59 62 62 58 54 51 49 44 45 49 47 44 42 40 40 40
89 85 77 73 69 68 66 64 63 58 58 59 55 49 44 41 44 55 64 62 58 55 53 51 49 48 47 46 44 43 42 41
90 91 81 75 80 78 73 70 70 65 62 60 61 58 45 41 40 42 50 62 64 61 59 56 56 54 52 50 49 47 45 44
95 92 84 83 86 84 77 73 74 71 67 65 64 60 52 48 47 48 42 43 54 63 63 61 60 59 58 56 54 52 52 51
98 96 92 93 93 86 80 76 75 73 69 65 63 59 62 48 46 43 38 37 38 42 54 65 66 64 63 63 60 59 59 57
98 98 95 98 93 89 86 90 81 77 71 64 61 62 58 52 48 49 48 46 42 39 40 43 47 54 63 67 67 67 62 59
100 100 98 97 94 94 93 88 79 75 70 65 58 57 61 58 51 48 48 47 43 40 40 39 39 41 43 44 47 49 49 46
103 99 99 98 92 91 89 87 81 75 75 71 67 63 61 60 60 58 53 47 44 43 41 40 42 43 43 44 45 46 44 43
92 93 97 94 88 85 88 88 85 83 82 77 73 69 66 65 63 62 60 59 54 50 47 47 46 47 49 49 50 49 48 47
92 91 91 94 83 82 89 90 93 89 86 82 78 75 73 69 67 68 67 65 60 56 53 53 52 51 52 53 53 52 54 55
97 94 87 89 96 95 94 94 96 94 92 89 85 81 77 73 72 71 70 70 67 65 62 58 58 59 59 57 58 58 59 60
101 97 92 85 86 91 94 94 93 96 97 93 89 84 82 79 77 75 74 74 73 71 67 66 64 63 63 63 63 64 65 65

GFSFLT2_250_spd_030.txt.gz
Wind_Speed
62 61 58 52 45 51 51 48 45 45 45 47 48 51 50 42 37 32 30 26 23 22 27 33 36 41 41 37 35 32 30 27
70 68 61 53 56 55 47 44 41 44 42 45 47 46 47 47 42 38 36 31 26 22 28 29 37 42 42 38 36 31 32 31
77 65 57 53 51 45 49 45 43 45 44 44 45 48 41 47 47 44 42 36 30 24 27 30 35 43 45 42 39 39 37 34
77 68 66 59 56 52 45 42 41 45 45 35 35 42 44 46 50 50 48 40 34 28 25 27 34 42 46 44 42 40 37 36
82 76 67 59 58 55 55 55 46 46 46 42 38 38 42 49 55 55 52 46 40 32 27 29 35 43 46 44 43 41 39 37
76 66 66 68 65 62 59 53 51 50 51 44 39 36 36 47 55 57 55 50 47 37 33 32 36 43 48 47 44 41 40 39
82 79 77 75 72 68 60 59 54 56 54 47 43 37 38 40 51 57 57 52 51 45 40 35 38 44 46 47 45 43 42 40
86 86 87 81 76 70 68 65 63 60 59 54 49 44 38 38 46 57 59 59 54 51 44 43 42 46 47 46 46 46 45 44
86 90 87 83 75 71 70 69 66 62 61 60 54 52 42 40 40 47 56 59 56 54 51 49 46 47 47 50 49 49 50 48
93 97 97 82 79 76 70 70 69 70 69 64 59 54 43 42 40 36 49 54 58 55 53 50 48 46 50 48 47 48 47 44
100 99 92 86 79 78 75 74 77 75 75 72 57 56 51 51 46 39 36 43 52 57 57 54 52 50 47 47 51 51 51 50
103 103 94 89 87 89 86 87 89 85 77 69 60 57 58 55 43 37 37 33 33 41 53 60 57 54 52 51 53 51 52 51
100 100 99 99 97 99 96 96 87 83 82 73 70 64 58 50 50 50 45 39 38 38 39 46 57 60 57 56 56 58 54 52
100 102 106 105 105 101 100 94 87 85 77 72 69 61 57 52 55 57 55 49 46 44 41 39 38 40 48 56 62 62 59 60
106 103 106 105 110 104 98 92 88 83 77 72 65 60 55 60 67 61 55 51 50 51 48 45 39 39 35 32 34 39 43 47
100 106 112 109 105 102 95 90 84 80 77 74 67 62 68 68 63 62 56 54 56 58 55 50 49 44 42 42 43 42 42 41
94 99 102 99 91 86 88 89 82 78 78 74 75 75 70 70 65 61 63 60 57 59 58 55 54 51 50 50 49 47 47 48
100 99 95 89 81 76 79 87 85 84 81 84 82 81 77 73 69 64 65 65 62 60 56 55 55 53 50 50 49 49 51 52
102 98 91 84 74 72 75 81 90 90 90 90 87 86 84 78 76 72 69 68 67 65 66 64 60 56 55 55 55 55 54 55

GFSFLT2_250_spd_033.txt.gz
Wind_Speed
79 74 70 64 54 57 59 60 59 55 52 49 43 37 43 42 42 37 36 38 39 28 20 28 27 34 29 42 40 37 33 32
82 83 74 61 63 60 55 56 54 54 50 44 39 38 42 42 40 43 43 41 38 27 25 28 31 35 32 42 44 40 37 34
88 78 65 66 62 59 59 58 54 53 49 45 42 42 41 44 42 47 47 44 40 34 29 24 29 36 36 43 47 45 43 39
81 68 71 70 63 63 56 55 53 54 50 44 42 41 41 45 48 46 54 49 42 37 30 26 29 32 41 45 49 47 43 38
86 85 76 66 62 60 59 63 57 55 52 45 43 41 41 45 47 49 56 54 50 42 35 32 31 33 40 46 48 47 45 43
84 75 71 66 62 63 61 58 59 54 52 46 44 41 43 45 46 48 50 55 51 47 42 37 31 35 39 45 48 50 47 45
82 78 77 75 72 68 58 60 56 60 52 49 45 43 42 41 42 47 49 51 53 50 44 39 35 34 39 45 48 50 48 46
86 85 83 82 77 70 67 66 64 64 55 53 51 45 42 42 40 43 47 47 54 53 50 45 41 37 40 46 49 51 51 48
89 90 91 84 74 71 69 69 66 64 59 56 55 51 49 44 46 46 43 46 50 55 52 48 46 40 37 44 48 49 52 48
96 94 88 78 76 71 70 71 70 72 72 62 64 63 50 47 44 46 42 42 44 49 53 50 48 44 38 38 45 49 50 50
99 95 81 84 87 81 79 82 80 82 80 77 74 60 47 46 43 43 39 31 35 43 52 53 49 44 40 37 37 42 48 49
93 91 91 96 89 84 84 85 81 86 87 83 70 60 50 47 44 42 40 32 29 37 45 55 53 50 47 43 43 44 49 51
93 95 95 95 92 89 92 92 86 90 93 83 62 49 47 48 49 45 42 39 34 31 40 48 56 55 50 49 49 50 47 42
94 94 99 102 99 97 93 92 91 93 95 81 58 47 50 51 54 50 46 44 38 33 31 32 41 53 56 54 54 53 50 47
100 105 103 104 103 101 98 98 95 94 93 76 57 51 53 51 55 51 49 50 47 43 37 34 34 36 44 54 60 58 55 53
103 105 105 104 105 102 101 100 98 93 86 74 60 58 61 58 59 55 54 56 60 51 45 40 41 42 40 38 41 50 56 60
108 106 101 104 102 100 103 105 102 94 84 75 67 65 66 65 62 63 63 62 61 59 54 51 51 50 47 46 43 40 38 41
107 102 100 101 100 98 98 103 100 90 82 76 73 71 71 69 71 74 67 63 60 58 57 58 55 54 55 55 51 47 45 45
103 101 97 96 96 94 89 86 87 82 78 76 74 76 75 77 75 70 67 65 62 62 61 59 57 55 58 60 59 56 55 54

GFSFLT2_250_spd_036.txt.gz
Wind_Speed
87 83 81 77 66 68 65 61 56 49 53 57 56 50 44 39 39 41 39 38 36 33 26 27 25 29 32 26 32 37 34 32
91 91 87 73 74 70 63 62 55 52 56 56 57 50 45 39 33 41 43 43 41 38 33 34 25 26 34 31 31 39 39 36
99 95 82 80 75 72 73 67 58 59 58 64 54 49 43 38 35 37 53 53 47 43 38 31 27 29 32 35 33 44 45 40
92 80 86 88 83 80 71 61 58 62 64 58 49 46 43 39 35 38 51 54 49 48 41 34 30 30 36 38 38 44 45 41
91 92 94 90 79 74 71 71 65 65 62 55 52 50 48 44 39 42 47 52 52 52 46 38 36 31 35 39 42 44 46 45
95 90 85 78 76 71 70 69 67 62 66 55 53 52 50 48 45 42 48 53 51 53 51 43 42 36 34 38 43 44 46 47
96 90 85 78 74 73 68 65 64 69 65 58 58 54 50 52 48 42 45 48 49 52 58 51 45 39 33 36 39 47 48 49
92 92 87 80 76 70 67 67 71 73 66 61 59 56 53 55 50 46 44 45 48 49 53 52 45 42 38 37 39 46 51 51
95 95 90 85 82 75 71 75 76 76 69 63 63 58 55 55 49 43 42 42 47 51 50 56 52 48 42 38 39 44 50 53
94 97 94 89 85 81 82 85 84 78 77 73 67 63 55 51 42 40 38 38 38 47 53 57 57 50 45 40 36 40 44 53
95 95 94 91 87 86 84 85 84 81 81 71 66 58 53 49 43 43 40 41 38 39 46 55 58 54 49 45 42 37 38 51
93 96 95 95 93 92 86 85 86 87 84 73 65 58 54 50 46 46 43 38 37 36 40 48 53 57 53 48 45 43 40 44
95 96 94 95 97 92 92 89 86 88 86 72 61 55 52 50 48 47 44 40 38 36 34 40 47 54 56 52 50 51 47 43
93 95 93 94 97 96 95 91 88 88 85 67 57 55 53 51 47 49 48 46 44 41 34 34 42 51 56 56 53 51 48 45
97 95 92 94 96 96 90 88 87 89 83 69 60 58 56 54 54 51 49 48 45 43 40 34 33 43 52 58 59 56 53 51
97 93 91 91 93 92 94 91 89 87 82 73 66 62 59 56 54 55 55 52 48 45 45 44 41 39 41 47 54 57 56 54
98 95 91 90 92 91 94 94 92 87 82 75 67 65 63 60 57 58 60 55 52 51 52 50 48 44 42 40 39 40 45 53
100 98 96 92 91 94 92 92 94 90 85 81 73 68 66 66 64 62 63 61 59 61 58 57 55 52 49 46 43 39 38 39
99 100 99 96 95 92 95 101 95 94 88 87 82 78 73 71 68 70 65 66 69 66 62 59 60 57 56 52 48 48 44 44

GFSFLT2_250_spd_042.txt.gz
Wind_Speed
102 97 98 89 84 78 76 66 57 50 48 51 55 50 53 45 38 32 30 31 30 31 21 16 18 21 24 22 24 23 25 23
108 105 102 96 86 86 75 69 59 54 51 56 56 57 57 49 42 39 35 35 31 29 24 21 19 24 26 23 24 25 26 29
114 111 106 102 91 82 77 75 62 56 51 61 61 62 58 52 47 41 36 35 33 31 30 25 21 25 26 24 23 29 29 29
115 112 110 106 97 90 81 68 65 62 59 66 68 66 62 56 49 43 38 36 36 35 32 29 27 26 31 30 31 32 32 31
117 118 114 109 104 93 82 79 72 66 63 72 73 66 63 55 49 44 41 39 39 36 30 32 31 30 33 33 32 35 33 33
119 119 116 109 106 99 90 82 74 67 72 74 73 65 64 56 51 47 44 42 40 38 34 36 35 34 34 36 35 32 36 39
122 118 116 111 106 99 92 81 76 72 75 74 71 67 65 59 56 53 49 46 43 41 42 41 40 38 37 38 36 34 33 38
121 117 115 112 107 100 93 87 81 79 79 75 74 68 64 60 54 51 49 45 42 41 44 42 43 43 40 41 40 38 37 35
119 119 118 114 106 100 94 90 86 85 81 77 74 68 63 57 54 56 51 47 44 44 45 44 43 45 43 44 44 44 40 38
122 117 116 109 107 101 96 92 88 88 83 82 75 67 63 59 60 60 53 49 47 46 46 45 44 44 44 44 46 47 45 42
120 114 112 111 109 104 98 93 91 93 87 83 75 67 63 62 60 59 56 51 49 48 47 45 44 43 44 45 46 47 47 45
116 114 113 109 105 103 95 93 93 96 90 84 77 70 65 62 59 58 55 53 51 49 47 47 48 45 44 47 47 48 50 49
115 110 108 104 102 100 100 96 93 93 91 86 78 72 66 63 60 57 56 55 54 51 49 48 47 46 45 46 50 52 51 53
112 108 106 103 99 101 99 95 94 92 90 86 81 75 68 64 61 58 57 56 54 51 51 48 47 48 46 45 49 49 50 50
110 108 103 102 98 96 97 94 94 91 89 83 79 74 69 64 62 59 57 55 54 54 52 49 48 48 45 44 42 45 49 51
103 99 98 99 96 93 95 95 94 90 88 82 77 73 67 64 62 62 57 57 56 56 55 51 49 48 47 46 44 46 46 47
98 94 95 95 92 91 92 94 93 90 89 84 79 75 69 65 63 63 62 60 59 58 56 52 52 51 50 47 45 45 47 48
86 91 94 94 93 90 90 92 91 91 91 88 83 77 73 69 65 61 60 59 61 59 57 54 54 55 53 50 49 48 47 47
97 93 92 94 92 88 86 91 92 92 93 91 86 83 78 75 71 66 63 62 60 59 59 57 59 60 58 55 53 51 50 47

GFSFLT2_250_spd_045.txt.gz
Wind_Speed
109 104 101 97 87 82 84 77 66 59 54 55 56 51 48 44 36 33 31 27 26 26 28 22 15 15 14 15 17 20 20 18
113 112 108 104 93 93 87 80 68 62 59 57 61 57 55 50 45 41 35 31 29 30 27 30 23 17 14 17 21 19 22 24
120 118 116 110 109 96 88 81 72 66 61 63 66 67 62 57 53 47 42 37 35 36 31 32 29 21 17 19 21 23 25 29
122 123 121 119 112 100 95 81 76 71 68 72 68 70 66 61 55 51 45 42 37 34 33 32 28 23 21 21 21 23 24 28
123 125 125 123 116 109 96 88 82 77 69 73 73 72 72 64 57 52 46 43 37 33 34 32 30 27 24 25 27 28 25 27
123 127 129 125 121 115 103 95 83 78 75 78 78 71 67 65 61 55 47 44 39 35 35 33 31 29 28 28 29 29 29 30
117 126 129 123 120 116 103 94 86 80 76 82 84 78 74 68 62 54 47 43 40 37 37 37 35 33 32 31 31 33 32 32
110 123 123 119 121 115 104 96 88 83 81 86 86 81 74 65 58 53 48 45 44 46 44 41 40 39 38 35 35 35 36 37
102 119 119 117 117 113 105 101 93 86 85 87 87 81 76 70 61 56 52 50 50 49 47 46 43 41 40 38 35 36 38 38
95 112 108 106 116 115 108 100 97 90 90 90 83 79 77 71 64 58 57 55 55 51 48 46 44 40 37 36 35 36 37 40
87 101 104 107 116 112 109 103 100 96 96 89 80 81 80 72 65 61 62 60 56 52 49 47 45 40 39 40 39 38 39 41
80 91 100 95 107 109 109 106 102 101 99 91 83 84 79 73 66 66 65 63 55 55 53 49 44 42 41 40 41 41 41 43
75 88 95 95 105 109 113 106 103 104 101 94 84 84 80 74 69 67 68 59 56 56 53 50 48 45 43 41 43 44 43 45
75 89 96 96 105 110 107 108 104 103 100 95 89 85 81 77 73 70 65 60 58 56 54 51 49 46 45 43 46 47 45 44
76 93 95 95 102 106 107 108 106 104 99 96 92 87 83 80 76 72 67 63 61 58 56 53 51 49 47 45 46 48 48 48
76 92 89 97 100 104 106 107 106 103 98 97 92 88 85 82 79 73 68 67 64 61 58 54 53 50 47 46 51 50 47 46
80 89 88 95 100 102 104 104 104 101 100 97 92 88 85 82 77 74 71 71 67 64 60 57 54 52 51 50 51 51 44 46
81 85 95 98 103 102 103 102 101 100 101 98 91 89 84 84 77 76 73 70 68 66 64 63 60 56 52 51 51 49 45 45
76 85 95 98 99 100 101 100 99 100 102 99 94 88 87 84 82 77 75 69 67 67 66 65 62 59 52 52 51 51 48 43

GFSFLT2_250_spd_048.txt.gz
Wind_Speed
99 101 104 100 96 84 87 86 74 70 62 63 58 55 48 42 36 33 32 29 30 29 26 25 21 18 16 13 14 16 17 14
100 104 104 109 99 100 95 89 80 76 70 63 64 62 56 51 45 42 39 35 33 36 31 27 24 20 17 15 16 17 14 18
106 108 106 111 117 110 98 91 84 79 72 67 71 68 63 59 54 50 45 42 40 36 33 26 23 24 21 21 19 19 21 23
110 108 115 110 118 113 106 95 87 85 81 76 73 71 69 65 62 57 51 48 43 39 32 30 29 28 26 23 24 24 24 25
106 113 120 120 120 122 114 103 93 88 81 77 73 76 76 70 68 65 59 53 47 43 39 37 32 32 30 25 23 24 25 25
103 112 122 120 123 125 119 108 100 90 87 82 80 83 80 75 74 69 61 55 50 46 41 37 37 34 33 30 25 26 28 26
102 110 108 115 124 125 119 110 101 94 89 85 83 86 85 80 76 70 65 58 51 49 45 42 41 40 38 34 29 29 31 32
94 107 105 110 120 126 121 113 107 98 89 85 92 89 88 83 75 70 66 58 56 52 48 44 43 44 41 38 34 33 33 34
84 98 106 109 112 121 120 115 110 100 94 95 96 89 87 80 77 73 67 59 55 52 50 49 47 47 43 42 37 36 34 34
73 92 97 95 105 116 119 117 113 109 100 96 99 94 87 84 79 71 68 62 60 55 54 56 53 49 46 41 38 37 34 33
69 88 85 97 100 111 118 114 114 110 103 97 100 99 94 86 83 71 71 66 62 59 60 60 54 51 48 44 40 38 35 35
68 70 71 88 93 100 114 115 115 111 108 101 102 98 95 86 82 76 73 71 66 65 66 61 57 54 50 46 42 41 39 39
53 57 66 77 89 94 104 110 113 113 109 107 105 101 93 86 81 75 73 72 70 71 68 66 61 56 52 49 47 46 39 38
50 59 66 75 82 90 98 106 115 116 113 113 106 98 92 90 79 75 74 78 78 76 71 65 59 58 57 54 51 46 41 40
44 52 61 69 71 86 98 108 116 115 117 114 107 92 90 87 82 77 75 76 80 79 70 64 64 61 61 54 50 46 44 43
43 49 54 61 73 87 98 107 116 117 118 112 104 97 89 89 88 84 77 78 81 73 68 69 67 63 59 55 53 49 46 45
45 48 54 64 75 84 95 105 115 118 116 111 105 100 93 91 86 83 80 74 75 71 71 69 67 63 60 58 55 53 49 46
48 50 54 63 72 77 92 101 114 116 115 109 107 102 97 94 88 84 81 75 71 72 73 70 67 64 62 60 59 54 50 47
53 55 56 74 88 91 98 102 111 113 114 110 109 100 96 98 91 83 80 73 71 68 71 71 70 67 63 63 60 58 53 50